Home > Weather > Hilo > Past weeks

Flag for USA Weather for the Past 2 Weeks in Hilo, Hawaii, USA

Now
82 °F

Passing clouds.


Feels Like: 84 °F
Forecast: 69 / 83 °F
Wind: 13 mph from East

Location: Hilo International Airport

Current Time: Apr 29, 2016 at 2:35:31 PM

Latest Report: Apr 29, 2016 at 1:53 PM


Visibility: 10 mi

Pressure: 30.07 "Hg

Humidity: 58%

Dew Point: 66 °F

Location of HiloLocation

Historic Weather in Hilo — Graph

°F

Hilo Temperature Yesterday

Maximum temperature yesterday: 81 °F (at 2:53 PM)
Minimum temperature yesterday: 68 °F (at 1:00 AM)
Average temperature yesterday: 74 °F

High & Low Weather Summary for the Past Weeks

 TemperatureHumidityPressure
High84 °F (Apr 15, 12:53 PM)100% (Apr 19, 7:00 PM)30.18 "Hg (Apr 19, 7:00 PM)
Low65 °F (Apr 17, 4:53 AM)44% (Apr 22, 10:53 AM)29.93 "Hg (Apr 17, 3:53 PM)
Average73 °F78%30.07 "Hg
* Reported Apr 14 12:53 PM — Apr 29 12:53 PM, Hilo, Weather by CustomWeather, © 2016

Note: Actual official high and low records may vary slightly from our data, if they occured in-between our weather recording intervals... More about our weather records

Advertising

Hilo Weather History for the Previous 24 Hours

Scroll right to see more
 ConditionsComfort  
Time TempWeatherWind HumidityBarometerVisibility
12:53 PM
Fri, Apr 29
81 °FPartly sunny.10 mph62%30.09 "Hg10 mi
11:53 AM81 °FPartly sunny.8 mph58%30.11 "Hg10 mi
10:53 AM79 °FPartly sunny.6 mph65%30.13 "Hg10 mi
9:53 AM79 °FPartly sunny.6 mph62%30.14 "Hg10 mi
8:53 AM78 °FScattered clouds.No wind62%30.13 "Hg10 mi
7:53 AM76 °FScattered clouds.9 mph72%30.13 "Hg10 mi
6:53 AM71 °FPartly sunny.12 mph84%30.12 "Hg10 mi
5:53 AM68 °FLight rain. Mostly cloudy.12 mph90%30.12 "Hg8 mi
5:31 AM68 °FLight rain. Mostly cloudy.10 mph94%30.12 "Hg8 mi
5:21 AM68 °FLight rain. Fog.9 mph88%30.12 "Hg3 mi
4:53 AM69 °FRain. Fog.6 mph87%30.12 "Hg2 mi
3:53 AM69 °FLight rain. Mostly cloudy.10 mph93%30.10 "Hg10 mi
3:36 AM70 °FPartly cloudy.8 mph88%30.11 "Hg10 mi
2:53 AM69 °FLight rain. Fog.6 mph90%30.10 "Hg4 mi
1:53 AM70 °FPassing clouds.7 mph81%30.10 "Hg10 mi
12:53 AM71 °FPassing clouds.6 mph78%30.12 "Hg10 mi
11:53 PM
Thu, Apr 28
73 °FPartly cloudy.5 mph79%30.14 "Hg10 mi
11:05 PM73 °FPartly cloudy.No wind74%30.16 "Hg10 mi
9:53 PM73 °FPartly cloudy.6 mph71%30.15 "Hg10 mi
8:53 PM75 °FMostly cloudy.7 mph71%30.14 "Hg10 mi
7:53 PM75 °FOvercast.3 mph69%30.12 "Hg10 mi
6:53 PM75 °FPassing clouds.10 mph71%30.09 "Hg10 mi
5:53 PM76 °FPartly sunny.10 mph74%30.07 "Hg10 mi
4:53 PM79 °FScattered clouds.13 mph69%30.05 "Hg10 mi
3:53 PM80 °FPartly sunny.9 mph62%30.05 "Hg10 mi
2:53 PM81 °FPassing clouds.7 mph58%30.06 "Hg10 mi
Weather by CustomWeather, © 2016

See weather overviewHow to use our weather pages